Location: Newark
(13.8117°N, 3.6025°W)
Time: 14:28:41
(UTC+00:00)

Explorer 11/Cluster Stage 4 - Pass Details

Date: 29 August 2019
Orbit: 467 x 1260 km, 28.8° (Epoch: 16 September)

Event Time Altitude Azimuth Distance (km) Brightness Sun altitude
Rises 10:14:53 0° 297° (WNW) 3,853 9.8 60.2°
Reaches altitude 10° 10:18:04 10° 310° (NW) 3,006 9.4 60.9°
Maximum altitude 10:24:15 26° 4° (N) 2,186 9.2 62.4°
Drops below altitude 10° 10:30:50 10° 57° (ENE) 3,229 10.2 64.0°
Sets 10:34:24 0° 69° (ENE) 4,192 10.6 64.9°
